Patuxent River, MD

10:29 AM EDT on September 22, 2017 (GMT -0400)
Patuxent River Naval Air Station

Weather History for KNHK - December, 2013

Change the Weather History Date:

Sunday, December 22, 2013

  Actual Average Record
Temperature  
Mean Temperature 62 °F -  
Max Temperature 73 °F 44 °F 73 °F (2013)
Min Temperature 51 °F 27 °F 6 °F (1989)
Degree Days  
Heating Degree Days 3    
Growing Degree Days 12 (Base 50)    
Moisture  
Dew Point 59 °F    
Average Humidity 81    
Maximum Humidity 97    
Minimum Humidity 71    
Precipitation  
Precipitation 0.12 in - - ()
Sea Level Pressure  
Sea Level Pressure 29.98 in    
Wind  
Wind Speed 11 mph (SSW)    
Max Wind Speed 21 mph    
Max Gust Speed 30 mph    
Visibility 9 miles    
Events Rain    
Averages and records for this station are not official NWS values.
T = Trace of Precipitation, MM = Missing Value Source: NWS Daily Summary

Daily Weather History Graph

Daily Weather History Graph

Search for Another Location

Airport or City:

Trip Planner

Search our weather history database for the weather conditions in past years. The results will help you decide how hot, cold, wet, or windy it might be!

Date:

Astronomy

Dec. 22, 2013 Rise Set
Actual Time 7:19 AM EST 4:49 PM EST
Civil Twilight 6:49 AM EST 5:19 PM EST
Nautical Twilight 6:16 AM EST 5:52 PM EST
Astronomical Twilight 5:44 AM EST 6:24 PM EST
Moon 9:56 PM EST 10:18 AM EST
Length of Visible Light 10h 29m
Length of Day
9h 29m
Waning Gibbous, 77% of the Moon is Illuminated
Dec 22
Waning Gibbous
Dec 25
Last Quarter
Jan 1
New
Jan 7
First Quarter
Jan 15
Full

Hourly Weather History & Observations

Time (EST) Temp. Dew Point Humidity Pressure Visibility Wind Dir Wind Speed Gust Speed Precip Events Conditions
12:52 AM 64.9 °F 60.1 °F 84% 29.95 in 10.0 mi South 8.1 mph - N/A   Clear
1:52 AM 51.1 °F 48.9 °F 92% 29.94 in 10.0 mi ESE 6.9 mph - N/A   Partly Cloudy
2:26 AM 53.1 °F 50.0 °F 89% 29.94 in 10.0 mi Variable 6.9 mph - N/A   Mostly Cloudy
2:52 AM 68.0 °F 61.0 °F 78% 29.95 in 10.0 mi SW 12.7 mph 23.0 mph N/A   Overcast
3:52 AM 69.1 °F 61.0 °F 75% 29.92 in 10.0 mi SSW 17.3 mph 28.8 mph N/A   Mostly Cloudy
4:06 AM 69.1 °F 61.0 °F 75% 29.91 in 10.0 mi SSW 16.1 mph 29.9 mph N/A   Scattered Clouds
4:52 AM 69.1 °F 61.0 °F 75% 29.92 in 10.0 mi SSW 12.7 mph 27.6 mph N/A   Scattered Clouds
5:04 AM 70.0 °F 61.0 °F 73% 29.92 in 10.0 mi SW 20.7 mph 29.9 mph N/A   Mostly Cloudy
5:32 AM 69.1 °F 61.0 °F 75% 29.92 in 10.0 mi SSW 10.4 mph 29.9 mph N/A   Scattered Clouds
5:52 AM 69.1 °F 61.0 °F 75% 29.93 in 10.0 mi SSW 11.5 mph - N/A   Clear
6:12 AM 69.1 °F 61.0 °F 75% 29.93 in 10.0 mi SSW 8.1 mph 18.4 mph N/A   Partly Cloudy
6:52 AM 69.1 °F 61.0 °F 75% 29.95 in 10.0 mi SSW 11.5 mph 20.7 mph N/A   Partly Cloudy
7:52 AM 69.1 °F 62.1 °F 78% 29.95 in 10.0 mi South 13.8 mph 26.5 mph N/A   Scattered Clouds
8:52 AM 71.1 °F 62.1 °F 73% 29.98 in 10.0 mi SSW 11.5 mph 23.0 mph N/A   Mostly Cloudy
9:52 AM 73.0 °F 63.0 °F 71% 30.00 in 10.0 mi SSW 13.8 mph 24.2 mph N/A   Mostly Cloudy
10:52 AM 73.0 °F 63.0 °F 71% 30.02 in 10.0 mi SW 11.5 mph 19.6 mph N/A   Overcast
11:28 AM 66.0 °F 57.0 °F 73% 30.05 in 10.0 mi NW 13.8 mph 21.9 mph 0.00 in Rain Light Rain
11:52 AM 62.1 °F 57.0 °F 84% 30.05 in 7.0 mi NNW 18.4 mph - N/A Rain Light Rain
12:52 PM 60.1 °F 59.0 °F 96% 30.03 in 5.0 mi SE 4.6 mph - N/A Rain Light Rain
1:52 PM 57.9 °F 57.0 °F 97% 30.00 in 1.5 mi SE 8.1 mph - 0.02 in   Overcast
2:52 PM 60.1 °F 57.9 °F 93% 30.01 in 4.0 mi South 5.8 mph - N/A   Overcast
3:52 PM 62.1 °F 59.0 °F 90% 30.01 in 7.0 mi South 8.1 mph - N/A   Overcast
4:52 PM 63.0 °F 57.9 °F 84% 30.02 in 7.0 mi South 11.5 mph - 0.00 in Rain Light Rain
5:52 PM 61.0 °F 57.9 °F 90% 30.04 in 7.0 mi South 10.4 mph 23.0 mph 0.08 in Rain Light Rain
6:52 PM 62.1 °F 57.9 °F 86% 30.01 in 10.0 mi South 12.7 mph - 0.02 in Rain Light Rain
7:52 PM 62.1 °F 57.9 °F 86% 29.97 in 10.0 mi South 13.8 mph 19.6 mph 0.00 in   Mostly Cloudy
8:52 PM 64.0 °F 57.0 °F 78% 29.98 in 10.0 mi SSW 15.0 mph 20.7 mph 0.00 in   Mostly Cloudy
9:52 PM 64.9 °F 57.9 °F 78% 29.99 in 10.0 mi SW 10.4 mph 20.7 mph 0.00 in Rain Light Rain
10:52 PM 64.9 °F 57.9 °F 78% 29.99 in 10.0 mi South 6.9 mph - 0.00 in Rain Light Rain
11:52 PM 64.9 °F 59.0 °F 81% 30.02 in 10.0 mi SSW 5.8 mph - 0.00 in Rain Light Rain